| time (UTC) | temp F | wind direction | speed MPH | gust MPH | rain 1hr in | rain 24hr in | rain mn in | humidity % | barometer mb |
| 20260509122023 | 57 | 221 | 2.0 | 4.0 | 0.00 | 0.47 | 0.00 | 95 | 1034.2 |
| 20260509121546 | 57 | 226 | 2.0 | 4.0 | 0.00 | 0.47 | 0.00 | 95 | 1034.2 |
| 20260509121023 | 57 | 225 | 2.0 | 4.0 | 0.00 | 0.47 | 0.00 | 95 | 1034.2 |
| 20260509120523 | 57 | 198 | 1.0 | 3.0 | 0.00 | 0.47 | 0.00 | 95 | 1034.1 |
| 20260509120024 | 57 | 216 | 1.0 | 1.0 | 0.00 | 0.47 | 0.00 | 95 | 1034.1 |
| 20260509115525 | 57 | 186 | 1.0 | 2.0 | 0.00 | 0.47 | 0.00 | 95 | 1034.1 |
| 20260509115023 | 57 | 190 | 0.0 | 1.0 | 0.00 | 0.47 | 0.00 | 95 | 1034.0 |
| 20260509114525 | 57 | 187 | 1.0 | 3.0 | 0.00 | 0.47 | 0.00 | 95 | 1034.0 |
| 20260509114024 | 57 | 225 | 1.0 | 3.0 | 0.00 | 0.47 | 0.00 | 95 | 1033.9 |
| 20260509113524 | 56 | 219 | 1.0 | 2.0 | 0.00 | 0.47 | 0.00 | 95 | 1033.8 |
| 20260509113024 | 56 | 226 | 1.0 | 2.0 | 0.00 | 0.47 | 0.00 | 95 | 1033.8 |
| 20260509112545 | 56 | 219 | 1.0 | 2.0 | 0.00 | 0.47 | 0.00 | 95 | 1033.8 |
| 20260509112025 | 56 | 222 | 1.0 | 2.0 | 0.00 | 0.47 | 0.00 | 95 | 1033.8 |
| 20260509111524 | 56 | 212 | 1.0 | 2.0 | 0.00 | 0.47 | 0.00 | 95 | 1033.8 |
| 20260509111024 | 56 | 205 | 1.0 | 2.0 | 0.00 | 0.47 | 0.00 | 95 | 1033.9 |
| 20260509110526 | 56 | 211 | 1.0 | 2.0 | 0.00 | 0.47 | 0.00 | 95 | 1033.8 |
| 20260509110044 | 56 | 207 | 2.0 | 2.0 | 0.00 | 0.47 | 0.00 | 95 | 1033.7 |
| 20260509105525 | 56 | 195 | 2.0 | 3.0 | 0.00 | 0.47 | 0.00 | 95 | 1033.8 |
| 20260509105026 | 56 | 183 | 1.0 | 2.0 | 0.00 | 0.47 | 0.00 | 95 | 1033.9 |
| 20260509104525 | 56 | 215 | 2.0 | 3.0 | 0.00 | 0.47 | 0.00 | 95 | 1033.8 |
| 20260509104027 | 56 | 201 | 2.0 | 4.0 | 0.00 | 0.47 | 0.00 | 95 | 1033.6 |
| 20260509103525 | 57 | 214 | 2.0 | 4.0 | 0.00 | 0.47 | 0.00 | 95 | 1033.5 |
| 20260509103026 | 57 | 204 | 1.0 | 2.0 | 0.00 | 0.47 | 0.00 | 95 | 1033.5 |
| 20260509102545 | 57 | 214 | 1.0 | 3.0 | 0.00 | 0.47 | 0.00 | 95 | 1033.4 |
| 20260509102028 | 57 | 205 | 2.0 | 2.0 | 0.00 | 0.47 | 0.00 | 95 | 1033.4 |
| 20260509101545 | 57 | 175 | 2.0 | 3.0 | 0.00 | 0.47 | 0.00 | 95 | 1033.4 |
| 20260509101030 | 57 | 208 | 2.0 | 4.0 | 0.00 | 0.47 | 0.00 | 95 | 1033.3 |
| 20260509100548 | 57 | 203 | 2.0 | 3.0 | 0.00 | 0.47 | 0.00 | 95 | 1033.3 |
| 20260509100025 | 57 | 213 | 2.0 | 3.0 | 0.00 | 0.47 | 0.00 | 95 | 1033.2 |
| 20260509095526 | 57 | 222 | 2.0 | 3.0 | 0.00 | 0.47 | 0.00 | 95 | 1033.3 |
| 20260509095026 | 57 | 224 | 1.0 | 2.0 | 0.00 | 0.47 | 0.00 | 95 | 1033.3 |
| 20260509094546 | 57 | 224 | 1.0 | 2.0 | 0.00 | 0.47 | 0.00 | 95 | 1033.2 |
| 20260509094027 | 57 | 218 | 2.0 | 3.0 | 0.00 | 0.47 | 0.00 | 95 | 1033.2 |
| 20260509093526 | 57 | 203 | 2.0 | 5.0 | 0.00 | 0.47 | 0.00 | 95 | 1033.2 |
| 20260509093027 | 57 | 219 | 1.0 | 2.0 | 0.00 | 0.47 | 0.00 | 95 | 1033.2 |
| 20260509092526 | 57 | 214 | 1.0 | 2.0 | 0.00 | 0.47 | 0.00 | 95 | 1033.2 |
| 20260509092047 | 57 | 219 | 1.0 | 4.0 | 0.00 | 0.47 | 0.00 | 95 | 1033.1 |
| 20260509091526 | 57 | 218 | 1.0 | 1.0 | 0.00 | 0.47 | 0.00 | 95 | 1033.1 |
| 20260509091026 | 57 | 221 | 1.0 | 2.0 | 0.00 | 0.47 | 0.00 | 95 | 1033.2 |
| 20260509090530 | 57 | 210 | 1.0 | 2.0 | 0.00 | 0.47 | 0.00 | 95 | 1033.1 |
| 20260509090046 | 57 | 216 | 1.0 | 2.0 | 0.00 | 0.47 | 0.00 | 95 | 1033.2 |
| 20260509085531 | 57 | 216 | 1.0 | 2.0 | 0.00 | 0.47 | 0.00 | 95 | 1033.2 |
| 20260509085027 | 57 | 214 | 1.0 | 2.0 | 0.00 | 0.47 | 0.00 | 95 | 1033.2 |
| 20260509084527 | 57 | 220 | 1.0 | 2.0 | 0.00 | 0.47 | 0.00 | 95 | 1033.4 |
| 20260509084026 | 57 | 220 | 1.0 | 2.0 | 0.00 | 0.47 | 0.00 | 95 | 1033.4 |
| 20260509083548 | 57 | 217 | 1.0 | 2.0 | 0.00 | 0.47 | 0.00 | 95 | 1033.4 |
| 20260509083027 | 57 | 219 | 1.0 | 1.0 | 0.00 | 0.47 | 0.00 | 95 | 1033.5 |
| 20260509082528 | 56 | 218 | 1.0 | 2.0 | 0.00 | 0.47 | 0.00 | 95 | 1033.5 |
| 20260509082027 | 56 | 219 | 1.0 | 1.0 | 0.00 | 0.47 | 0.00 | 95 | 1033.5 |
| 20260509081530 | 56 | 215 | 1.0 | 2.0 | 0.00 | 0.47 | 0.00 | 95 | 1033.4 |
| 20260509081031 | 56 | 216 | 1.0 | 4.0 | 0.00 | 0.47 | 0.00 | 95 | 1033.4 |
| 20260509080524 | 56 | 215 | 2.0 | 5.0 | 0.00 | 0.47 | 0.00 | 95 | 1033.3 |
| 20260509080046 | 56 | 213 | 2.0 | 7.0 | 0.00 | 0.47 | 0.00 | 95 | 1033.3 |
| 20260509075548 | 56 | 218 | 1.0 | 2.0 | 0.00 | 0.47 | 0.00 | 95 | 1033.3 |
| 20260509075048 | 56 | 210 | 1.0 | 3.0 | 0.00 | 0.47 | 0.00 | 95 | 1033.3 |
| 20260509074531 | 57 | 203 | 2.0 | 4.0 | 0.00 | 0.47 | 0.00 | 95 | 1033.3 |
| 20260509074028 | 57 | 216 | 2.0 | 3.0 | 0.00 | 0.47 | 0.00 | 95 | 1033.4 |
| 20260509073530 | 57 | 206 | 2.0 | 4.0 | 0.00 | 0.47 | 0.00 | 95 | 1033.5 |
| 20260509073029 | 57 | 217 | 1.0 | 2.0 | 0.00 | 0.47 | 0.00 | 95 | 1033.7 |
| 20260509072529 | 57 | 215 | 1.0 | 2.0 | 0.00 | 0.47 | 0.00 | 95 | 1033.8 |
| 20260509072031 | 57 | 221 | 1.0 | 1.0 | 0.00 | 0.47 | 0.00 | 95 | 1033.9 |
| 20260509071529 | 57 | 218 | 1.0 | 1.0 | 0.00 | 0.47 | 0.00 | 95 | 1034.0 |
| 20260509071030 | 56 | 214 | 1.0 | 2.0 | 0.00 | 0.47 | 0.00 | 95 | 1034.0 |
| 20260509070528 | 56 | 217 | 1.0 | 2.0 | 0.00 | 0.47 | 0.00 | 95 | 1034.0 |
| 20260509070029 | 56 | 220 | 1.0 | 1.0 | 0.00 | 0.47 | 0.00 | 95 | 1034.0 |
| 20260509065529 | 56 | 223 | 0.0 | 1.0 | 0.00 | 0.47 | 0.00 | 95 | 1033.9 |
| 20260509065049 | 56 | 222 | 0.0 | 1.0 | 0.00 | 0.47 | 0.00 | 95 | 1033.9 |
| 20260509064528 | 56 | 222 | 0.0 | 1.0 | 0.00 | 0.47 | 0.00 | 95 | 1033.9 |
| 20260509064029 | 56 | 223 | 0.0 | 0.0 | 0.00 | 0.47 | 0.00 | 95 | 1034.0 |
| 20260509063532 | 56 | 223 | 0.0 | 0.0 | 0.00 | 0.47 | 0.00 | 95 | 1034.1 |
| 20260509063029 | 57 | 221 | 1.0 | 1.0 | 0.00 | 0.47 | 0.00 | 95 | 1034.1 |
| 20260509062529 | 57 | 221 | 1.0 | 1.0 | 0.00 | 0.47 | 0.00 | 95 | 1034.2 |
| 20260509062029 | 57 | 220 | 1.0 | 1.0 | 0.00 | 0.47 | 0.00 | 95 | 1034.1 |
| 20260509061532 | 57 | 219 | 1.0 | 1.0 | 0.00 | 0.47 | 0.00 | 95 | 1034.2 |
| 20260509061110 | 57 | 218 | 1.0 | 2.0 | 0.00 | 0.47 | 0.00 | 95 | 1034.3 |
| 20260509060522 | 57 | 219 | 1.0 | 1.0 | 0.00 | 0.47 | 0.00 | 95 | 1034.5 |
| 20260509060022 | 57 | 218 | 1.0 | 2.0 | 0.00 | 0.47 | 0.00 | 95 | 1034.6 |
| 20260509055545 | 57 | 216 | 1.0 | 2.0 | 0.00 | 0.47 | 0.00 | 95 | 1034.8 |
| 20260509055024 | 57 | 219 | 1.0 | 2.0 | 0.00 | 0.47 | 0.00 | 95 | 1034.9 |
| 20260509054542 | 57 | 217 | 1.0 | 2.0 | 0.00 | 0.47 | 0.00 | 95 | 1035.2 |
| 20260509054024 | 57 | 216 | 1.0 | 2.0 | 0.00 | 0.47 | 0.00 | 95 | 1035.4 |
| 20260509053523 | 57 | 213 | 1.0 | 2.0 | 0.00 | 0.47 | 0.00 | 95 | 1035.5 |
| 20260509053026 | 57 | 214 | 1.0 | 2.0 | 0.00 | 0.47 | 0.00 | 95 | 1035.7 |
| 20260509052521 | 57 | 213 | 1.0 | 2.0 | 0.00 | 0.47 | 0.00 | 95 | 1035.9 |
| 20260509052025 | 57 | 211 | 1.0 | 2.0 | 0.00 | 0.47 | 0.00 | 95 | 1036.1 |
| 20260509051523 | 57 | 188 | 1.0 | 3.0 | 0.00 | 0.47 | 0.00 | 95 | 1036.2 |
| 20260509051024 | 57 | 118 | 1.0 | 2.0 | 0.00 | 0.47 | 0.00 | 95 | 1036.4 |
| 20260509050524 | 57 | 140 | 1.0 | 2.0 | 0.01 | 0.47 | 0.00 | 95 | 1036.7 |
| 20260509050023 | 57 | 117 | 1.0 | 3.0 | 0.02 | 0.47 | 0.00 | 95 | 1036.9 |
| 20260509045542 | 57 | 144 | 1.0 | 3.0 | 0.03 | 0.47 | 0.47 | 95 | 1037.1 |
| 20260509045024 | 58 | 156 | 2.0 | 3.0 | 0.04 | 0.47 | 0.47 | 95 | 1037.3 |
| 20260509044522 | 58 | 194 | 1.0 | 3.0 | 0.04 | 0.47 | 0.47 | 95 | 1037.6 |
| 20260509044044 | 58 | 154 | 2.0 | 4.0 | 0.06 | 0.47 | 0.47 | 95 | 1037.8 |
| 20260509043524 | 58 | 188 | 1.0 | 2.0 | 0.10 | 0.47 | 0.47 | 95 | 1038.2 |
| 20260509043023 | 58 | 153 | 1.0 | 3.0 | 0.12 | 0.47 | 0.47 | 95 | 1038.8 |
| 20260509042523 | 58 | 196 | 1.0 | 4.0 | 0.14 | 0.47 | 0.47 | 95 | 1039.4 |
| 20260509042043 | 58 | 210 | 1.0 | 3.0 | 0.16 | 0.47 | 0.47 | 95 | 1039.9 |
| 20260509041523 | 58 | 212 | 1.0 | 3.0 | 0.18 | 0.47 | 0.47 | 95 | 1040.4 |
| 20260509041025 | 58 | 224 | 1.0 | 4.0 | 0.20 | 0.46 | 0.46 | 95 | 1040.7 |
| 20260509040522 | 58 | 342 | 2.0 | 5.0 | 0.20 | 0.45 | 0.45 | 95 | 1040.7 |
| 20260509040020 | 58 | 225 | 2.0 | 5.0 | 0.21 | 0.44 | 0.44 | 95 | 1040.5 |
| 20260509035521 | 58 | 356 | 2.0 | 4.0 | 0.22 | 0.43 | 0.43 | 95 | 1040.2 |
| 20260509035023 | 58 | 175 | 1.0 | 4.0 | 0.24 | 0.43 | 0.43 | 95 | 1039.5 |
| 20260509034524 | 58 | 30 | 3.0 | 5.0 | 0.26 | 0.42 | 0.42 | 95 | 1038.8 |
| 20260509034023 | 58 | 313 | 2.0 | 3.0 | 0.28 | 0.41 | 0.41 | 95 | 1038.1 |
| 20260509033544 | 58 | 313 | 2.0 | 4.0 | 0.26 | 0.37 | 0.37 | 95 | 1037.6 |
| 20260509033021 | 58 | 20 | 2.0 | 4.0 | 0.24 | 0.34 | 0.34 | 95 | 1037.1 |
| 20260509032522 | 58 | 16 | 2.0 | 3.0 | 0.24 | 0.32 | 0.32 | 95 | 1036.6 |
| 20260509032021 | 58 | 7 | 2.0 | 3.0 | 0.24 | 0.31 | 0.31 | 95 | 1036.2 |
| 20260509031541 | 58 | 354 | 1.0 | 2.0 | 0.23 | 0.29 | 0.29 | 94 | 1035.7 |
| 20260509031022 | 58 | 347 | 1.0 | 3.0 | 0.23 | 0.26 | 0.26 | 94 | 1035.3 |
| 20260509030542 | 58 | 351 | 1.0 | 3.0 | 0.21 | 0.25 | 0.25 | 94 | 1035.0 |
| 20260509030046 | 59 | 349 | 1.0 | 2.0 | 0.19 | 0.23 | 0.23 | 94 | 1034.9 |
| 20260509025522 | 59 | 336 | 1.0 | 3.0 | 0.18 | 0.22 | 0.22 | 94 | 1034.9 |
| 20260509025022 | 59 | 323 | 1.0 | 2.0 | 0.16 | 0.19 | 0.19 | 94 | 1035.0 |
| 20260509024522 | 59 | 276 | 1.0 | 3.0 | 0.13 | 0.16 | 0.16 | 93 | 1035.3 |
| 20260509024022 | 59 | 276 | 1.0 | 4.0 | 0.09 | 0.13 | 0.13 | 93 | 1036.2 |
| 20260509023522 | 59 | 238 | 0.0 | 1.0 | 0.07 | 0.11 | 0.11 | 93 | 1038.5 |
| 20260509023044 | 59 | 233 | 1.0 | 2.0 | 0.07 | 0.10 | 0.10 | 92 | 1040.1 |
| 20260509022523 | 59 | 230 | 1.0 | 5.0 | 0.05 | 0.09 | 0.09 | 92 | 1041.5 |
| 20260509022044 | 59 | 196 | 1.0 | 1.0 | 0.03 | 0.07 | 0.07 | 91 | 1043.1 |
| 20260509021522 | 59 | 190 | 0.0 | 1.0 | 0.02 | 0.05 | 0.05 | 90 | 1043.6 |
| 20260509021044 | 59 | 160 | 0.0 | 1.0 | 0.00 | 0.04 | 0.04 | 89 | 1043.4 |
| 20260509020522 | 59 | 81 | 0.0 | 1.0 | 0.00 | 0.04 | 0.04 | 89 | 1043.3 |
| 20260509020043 | 59 | 72 | 0.0 | 1.0 | 0.00 | 0.04 | 0.04 | 89 | 1043.2 |
| 20260509015542 | 60 | 139 | 1.0 | 2.0 | 0.01 | 0.04 | 0.04 | 88 | 1042.8 |
| 20260509015022 | 60 | 205 | 1.0 | 3.0 | 0.01 | 0.04 | 0.04 | 88 | 1042.7 |
| 20260509014523 | 60 | 224 | 1.0 | 3.0 | 0.01 | 0.04 | 0.04 | 88 | 1042.5 |
| 20260509014023 | 60 | 244 | 2.0 | 3.0 | 0.02 | 0.04 | 0.04 | 88 | 1041.9 |
| 20260509013523 | 60 | 263 | 1.0 | 2.0 | 0.02 | 0.04 | 0.04 | 87 | 1040.9 |
| 20260509013022 | 60 | 326 | 0.0 | 1.0 | 0.03 | 0.04 | 0.04 | 86 | 1040.1 |
| 20260509012522 | 60 | 211 | 0.0 | 3.0 | 0.03 | 0.04 | 0.04 | 85 | 1038.9 |
| 20260509012041 | 61 | 310 | 0.0 | 2.0 | 0.04 | 0.04 | 0.04 | 84 | 1037.9 |
| 20260509011522 | 61 | 332 | 1.0 | 2.0 | 0.04 | 0.04 | 0.04 | 84 | 1037.5 |
| 20260509011022 | 61 | 350 | 1.0 | 2.0 | 0.04 | 0.04 | 0.04 | 83 | 1037.2 |
| 20260509010524 | 62 | 251 | 2.0 | 7.0 | 0.04 | 0.04 | 0.04 | 83 | 1036.1 |
| 20260509010024 | 62 | 237 | 4.0 | 7.0 | 0.03 | 0.03 | 0.03 | 81 | 1034.2 |
| 20260509005524 | 63 | 230 | 4.0 | 7.0 | 0.03 | 0.03 | 0.03 | 79 | 1032.2 |
| 20260509005023 | 64 | 228 | 4.0 | 6.0 | 0.02 | 0.02 | 0.02 | 77 | 1030.4 |
| 20260509004524 | 65 | 232 | 4.0 | 6.0 | 0.02 | 0.02 | 0.02 | 75 | 1027.9 |
| 20260509004020 | 66 | 315 | 3.0 | 5.0 | 0.02 | 0.02 | 0.02 | 72 | 1025.5 |
| 20260509003543 | 67 | 303 | 1.0 | 3.0 | 0.01 | 0.01 | 0.01 | 69 | 1025.8 |
| 20260509003020 | 68 | 295 | 1.0 | 4.0 | 0.01 | 0.01 | 0.01 | 67 | 1028.6 |
| 20260509002520 | 68 | 294 | 1.0 | 2.0 | 0.00 | 0.00 | 0.00 | 64 | 1031.9 |
| 20260509002102 | 68 | 293 | 1.0 | 3.0 | 0.00 | 0.00 | 0.00 | 62 | 1034.3 |
| 20260509001521 | 69 | 293 | 1.0 | 2.0 | 0.00 | 0.00 | 0.00 | 61 | 1034.4 |
| 20260509001044 | 69 | 302 | 1.0 | 3.0 | 0.00 | 0.00 | 0.00 | 60 | 1034.0 |
| 20260509000544 | 70 | 303 | 2.0 | 3.0 | 0.00 | 0.00 | 0.00 | 59 | 1033.4 |
| 20260509000021 | 70 | 299 | 2.0 | 3.0 | 0.00 | 0.00 | 0.00 | 58 | 1031.7 |
| 20260508235544 | 70 | 285 | 2.0 | 3.0 | 0.00 | 0.00 | 0.00 | 57 | 1029.0 |
| 20260508235022 | 71 | 298 | 2.0 | 3.0 | 0.00 | 0.00 | 0.00 | 55 | 1025.7 |
| 20260508234521 | 71 | 299 | 1.0 | 2.0 | 0.00 | 0.00 | 0.00 | 55 | 1023.8 |
| 20260508234022 | 71 | 277 | 1.0 | 2.0 | 0.00 | 0.00 | 0.00 | 54 | 1022.0 |
| 20260508233543 | 71 | 293 | 1.0 | 2.0 | 0.00 | 0.00 | 0.00 | 53 | 1020.7 |
| 20260508233042 | 72 | 265 | 1.0 | 2.0 | 0.00 | 0.00 | 0.00 | 53 | 1020.2 |
| 20260508232522 | 72 | 278 | 1.0 | 2.0 | 0.00 | 0.00 | 0.00 | 52 | 1018.9 |
| 20260508232022 | 72 | 275 | 1.0 | 2.0 | 0.00 | 0.00 | 0.00 | 52 | 1017.5 |
| 20260508231521 | 72 | 270 | 0.0 | 1.0 | 0.00 | 0.00 | 0.00 | 51 | 1017.1 |
| 20260508231021 | 72 | 301 | 0.0 | 2.0 | 0.00 | 0.00 | 0.00 | 51 | 1016.6 |
| 20260508230522 | 73 | 270 | 0.0 | 1.0 | 0.00 | 0.00 | 0.00 | 50 | 1014.6 |
| 20260508230023 | 73 | 273 | 1.0 | 2.0 | 0.00 | 0.00 | 0.00 | 49 | 1013.4 |
| 20260508225523 | 73 | 277 | 0.0 | 2.0 | 0.00 | 0.00 | 0.00 | 48 | 1012.7 |
| 20260508225022 | 73 | 294 | 0.0 | 2.0 | 0.00 | 0.00 | 0.00 | 48 | 1012.2 |
| 20260508224523 | 74 | 295 | 0.0 | 2.0 | 0.00 | 0.00 | 0.00 | 48 | 1012.3 |
| 20260508224043 | 74 | 286 | 0.0 | 1.0 | 0.00 | 0.00 | 0.00 | 47 | 1010.9 |
| 20260508223522 | 74 | 300 | 1.0 | 2.0 | 0.00 | 0.00 | 0.00 | 47 | 1011.1 |
| 20260508223025 | 75 | 301 | 1.0 | 2.0 | 0.00 | 0.00 | 0.00 | 46 | 1010.3 |
| 20260508222523 | 75 | 304 | 1.0 | 3.0 | 0.00 | 0.00 | 0.00 | 45 | 1009.7 |
| 20260508222020 | 76 | 313 | 0.0 | 2.0 | 0.00 | 0.00 | 0.00 | 44 | 1009.1 |
| 20260508221541 | 76 | 302 | 0.0 | 2.0 | 0.00 | 0.00 | 0.00 | 42 | 1008.4 |
| 20260508221105 | 75 | 214 | 0.0 | 2.0 | 0.00 | 0.00 | 0.00 | 44 | 1008.9 |
| 20260508220524 | 75 | 184 | 1.0 | 5.0 | 0.00 | 0.00 | 0.00 | 44 | 1008.8 |
| 20260508220023 | 75 | 225 | 1.0 | 2.0 | 0.00 | 0.00 | 0.00 | 44 | 1009.0 |
| 20260508215522 | 75 | 276 | 0.0 | 2.0 | 0.00 | 0.00 | 0.00 | 43 | 1008.9 |
| 20260508215023 | 76 | 184 | 1.0 | 4.0 | 0.00 | 0.00 | 0.00 | 43 | 1009.1 |
| 20260508214523 | 76 | 179 | 2.0 | 6.0 | 0.00 | 0.00 | 0.00 | 44 | 1009.0 |
| 20260508214020 | 76 | 185 | 1.0 | 4.0 | 0.00 | 0.00 | 0.00 | 44 | 1009.4 |
| 20260508213521 | 76 | 317 | 1.0 | 4.0 | 0.00 | 0.00 | 0.00 | 41 | 1008.5 |
| 20260508213021 | 76 | 308 | 1.0 | 4.0 | 0.00 | 0.00 | 0.00 | 42 | 1008.6 |
| 20260508212522 | 75 | 300 | 1.0 | 4.0 | 0.00 | 0.00 | 0.00 | 44 | 1009.6 |
| 20260508212041 | 75 | 245 | 1.0 | 4.0 | 0.00 | 0.00 | 0.00 | 44 | 1009.5 |
| 20260508211522 | 75 | 207 | 0.0 | 3.0 | 0.00 | 0.00 | 0.00 | 45 | 1010.1 |
| 20260508211027 | 74 | 272 | 1.0 | 2.0 | 0.00 | 0.00 | 0.00 | 45 | 1010.0 |
| 20260508210524 | 75 | 213 | 1.0 | 3.0 | 0.00 | 0.00 | 0.00 | 46 | 1010.4 |
| 20260508210024 | 75 | 208 | 1.0 | 4.0 | 0.00 | 0.00 | 0.00 | 47 | 1011.2 |
| 20260508205524 | 75 | 224 | 0.0 | 2.0 | 0.00 | 0.00 | 0.00 | 45 | 1010.4 |
| 20260508205021 | 75 | 187 | 2.0 | 7.0 | 0.00 | 0.00 | 0.00 | 46 | 1010.9 |
| 20260508204522 | 75 | 191 | 1.0 | 5.0 | 0.00 | 0.00 | 0.00 | 47 | 1011.4 |
| 20260508204042 | 75 | 195 | 1.0 | 4.0 | 0.00 | 0.00 | 0.00 | 49 | 1013.2 |
| 20260508203522 | 75 | 186 | 2.0 | 4.0 | 0.00 | 0.00 | 0.00 | 49 | 1013.2 |
| 20260508203042 | 75 | 287 | 1.0 | 4.0 | 0.00 | 0.00 | 0.00 | 47 | 1012.4 |
| 20260508202542 | 75 | 187 | 2.0 | 5.0 | 0.00 | 0.00 | 0.00 | 49 | 1014.0 |
| 20260508202022 | 76 | 182 | 2.0 | 5.0 | 0.00 | 0.00 | 0.00 | 49 | 1013.1 |
| 20260508201522 | 75 | 208 | 1.0 | 6.0 | 0.00 | 0.00 | 0.00 | 48 | 1012.3 |
| 20260508201021 | 75 | 192 | 1.0 | 5.0 | 0.00 | 0.00 | 0.00 | 49 | 1015.1 |
| 20260508200542 | 75 | 187 | 2.0 | 7.0 | 0.00 | 0.00 | 0.00 | 48 | 1012.2 |
| 20260508200022 | 75 | 176 | 1.0 | 5.0 | 0.00 | 0.00 | 0.00 | 48 | 1013.2 |
| 20260508195525 | 75 | 216 | 1.0 | 5.0 | 0.00 | 0.00 | 0.00 | 46 | 1011.4 |
| 20260508195022 | 75 | 255 | 1.0 | 4.0 | 0.00 | 0.00 | 0.00 | 45 | 1010.8 |
| 20260508194542 | 75 | 238 | 1.0 | 5.0 | 0.00 | 0.00 | 0.00 | 47 | 1011.3 |
| 20260508194024 | 75 | 173 | 2.0 | 5.0 | 0.00 | 0.00 | 0.00 | 48 | 1013.5 |
| 20260508193524 | 74 | 236 | 1.0 | 3.0 | 0.00 | 0.00 | 0.00 | 48 | 1012.8 |
| 20260508193023 | 74 | 177 | 3.0 | 6.0 | 0.00 | 0.00 | 0.00 | 48 | 1011.8 |
| 20260508192524 | 74 | 173 | 2.0 | 5.0 | 0.00 | 0.00 | 0.00 | 49 | 1012.9 |
| 20260508192020 | 73 | 176 | 2.0 | 6.0 | 0.00 | 0.00 | 0.00 | 50 | 1015.0 |
| 20260508191520 | 72 | 172 | 1.0 | 3.0 | 0.00 | 0.00 | 0.00 | 50 | 1015.7 |
| 20260508191023 | 71 | 251 | 1.0 | 3.0 | 0.00 | 0.00 | 0.00 | 52 | 1016.0 |
| 20260508190544 | 71 | 194 | 2.0 | 4.0 | 0.00 | 0.00 | 0.00 | 52 | 1016.4 |
| 20260508190024 | 71 | 211 | 1.0 | 4.0 | 0.00 | 0.00 | 0.00 | 52 | 1017.8 |
| 20260508185524 | 71 | 156 | 3.0 | 5.0 | 0.00 | 0.00 | 0.00 | 53 | 1019.8 |
| 20260508185024 | 71 | 172 | 2.0 | 4.0 | 0.00 | 0.00 | 0.00 | 53 | 1017.5 |
| 20260508184524 | 71 | 182 | 2.0 | 5.0 | 0.00 | 0.00 | 0.00 | 53 | 1017.1 |
| 20260508184023 | 72 | 191 | 1.0 | 3.0 | 0.00 | 0.00 | 0.00 | 53 | 1018.4 |
| 20260508183522 | 72 | 174 | 2.0 | 4.0 | 0.00 | 0.00 | 0.00 | 53 | 1017.2 |
| 20260508183021 | 71 | 177 | 1.0 | 4.0 | 0.00 | 0.00 | 0.00 | 55 | 1022.6 |
| 20260508182522 | 71 | 208 | 1.0 | 3.0 | 0.00 | 0.00 | 0.00 | 55 | 1023.3 |
| 20260508182023 | 71 | 198 | 2.0 | 4.0 | 0.00 | 0.00 | 0.00 | 54 | 1020.5 |
| 20260508181522 | 71 | 190 | 2.0 | 6.0 | 0.00 | 0.00 | 0.00 | 54 | 1021.5 |
| 20260508181105 | 70 | 176 | 1.0 | 3.0 | 0.00 | 0.00 | 0.00 | 53 | 1019.2 |
| 20260508180524 | 70 | 169 | 1.0 | 4.0 | 0.00 | 0.00 | 0.00 | 54 | 1019.5 |
| 20260508180022 | 70 | 203 | 2.0 | 5.0 | 0.00 | 0.00 | 0.00 | 55 | 1021.5 |
| 20260508175524 | 70 | 173 | 2.0 | 8.0 | 0.00 | 0.00 | 0.00 | 53 | 1016.7 |
| 20260508175024 | 69 | 195 | 2.0 | 5.0 | 0.00 | 0.00 | 0.00 | 54 | 1021.2 |
| 20260508174522 | 69 | 198 | 2.0 | 4.0 | 0.00 | 0.00 | 0.00 | 55 | 1019.8 |
| 20260508174022 | 69 | 172 | 2.0 | 6.0 | 0.00 | 0.00 | 0.00 | 56 | 1023.1 |
| 20260508173522 | 68 | 185 | 2.0 | 6.0 | 0.00 | 0.00 | 0.00 | 56 | 1022.5 |
| 20260508173022 | 68 | 175 | 2.0 | 6.0 | 0.00 | 0.00 | 0.00 | 57 | 1028.2 |
| 20260508172523 | 67 | 217 | 1.0 | 3.0 | 0.00 | 0.00 | 0.00 | 57 | 1026.6 |
| 20260508172023 | 66 | 193 | 1.0 | 3.0 | 0.00 | 0.00 | 0.00 | 61 | 1034.1 |
| 20260508171522 | 66 | 182 | 1.0 | 4.0 | 0.00 | 0.00 | 0.00 | 60 | 1034.5 |
| 20260508171022 | 65 | 187 | 1.0 | 3.0 | 0.00 | 0.00 | 0.00 | 60 | 1033.4 |
| 20260508170522 | 65 | 188 | 1.0 | 3.0 | 0.00 | 0.00 | 0.00 | 59 | 1032.5 |
| 20260508170024 | 65 | 175 | 2.0 | 6.0 | 0.00 | 0.00 | 0.00 | 58 | 1030.2 |
| 20260508165524 | 66 | 196 | 1.0 | 4.0 | 0.00 | 0.00 | 0.00 | 59 | 1032.3 |
| 20260508165106 | 65 | 199 | 2.0 | 3.0 | 0.00 | 0.00 | 0.00 | 59 | 1031.5 |
| 20260508164522 | 65 | 213 | 1.0 | 3.0 | 0.00 | 0.00 | 0.00 | 61 | 1034.1 |
| 20260508164024 | 64 | 162 | 2.0 | 5.0 | 0.00 | 0.00 | 0.00 | 62 | 1036.5 |
| 20260508163524 | 64 | 204 | 1.0 | 4.0 | 0.00 | 0.00 | 0.00 | 62 | 1036.6 |
| 20260508163023 | 63 | 223 | 1.0 | 6.0 | 0.00 | 0.00 | 0.00 | 63 | 1037.0 |
| 20260508162521 | 63 | 218 | 2.0 | 7.0 | 0.00 | 0.00 | 0.00 | 63 | 1037.0 |
| 20260508162020 | 63 | 208 | 2.0 | 3.0 | 0.00 | 0.00 | 0.00 | 63 | 1037.2 |
| 20260508161600 | 63 | 200 | 2.0 | 5.0 | 0.00 | 0.00 | 0.00 | 62 | 1036.6 |
| 20260508161023 | 63 | 208 | 2.0 | 6.0 | 0.00 | 0.00 | 0.00 | 63 | 1037.2 |
| 20260508160524 | 63 | 201 | 2.0 | 7.0 | 0.00 | 0.00 | 0.00 | 63 | 1037.1 |
| 20260508160024 | 63 | 208 | 2.0 | 6.0 | 0.00 | 0.00 | 0.00 | 62 | 1037.3 |
| 20260508155524 | 63 | 194 | 3.0 | 5.0 | 0.00 | 0.00 | 0.00 | 62 | 1036.9 |
| 20260508155024 | 63 | 200 | 3.0 | 6.0 | 0.00 | 0.00 | 0.00 | 62 | 1036.9 |
| 20260508154523 | 63 | 209 | 2.0 | 6.0 | 0.00 | 0.00 | 0.00 | 63 | 1037.5 |
| 20260508154021 | 63 | 198 | 2.0 | 5.0 | 0.00 | 0.00 | 0.00 | 62 | 1036.6 |
| 20260508153541 | 63 | 205 | 2.0 | 6.0 | 0.00 | 0.00 | 0.00 | 62 | 1036.5 |
| 20260508153043 | 63 | 205 | 3.0 | 6.0 | 0.00 | 0.00 | 0.00 | 62 | 1036.2 |
| 20260508152522 | 63 | 202 | 2.0 | 6.0 | 0.00 | 0.00 | 0.00 | 61 | 1035.9 |
| 20260508152022 | 63 | 213 | 2.0 | 6.0 | 0.00 | 0.00 | 0.00 | 61 | 1035.9 |
| 20260508151522 | 63 | 205 | 3.0 | 8.0 | 0.00 | 0.00 | 0.00 | 61 | 1035.4 |
| 20260508151027 | 63 | 201 | 3.0 | 5.0 | 0.00 | 0.00 | 0.00 | 61 | 1035.5 |
| 20260508150523 | 63 | 204 | 2.0 | 6.0 | 0.00 | 0.00 | 0.00 | 61 | 1036.1 |
| 20260508150022 | 63 | 201 | 2.0 | 5.0 | 0.00 | 0.00 | 0.00 | 60 | 1035.2 |
| 20260508145542 | 63 | 212 | 3.0 | 6.0 | 0.00 | 0.00 | 0.00 | 60 | 1035.0 |
| 20260508145022 | 63 | 205 | 3.0 | 7.0 | 0.00 | 0.00 | 0.00 | 60 | 1034.1 |
| 20260508144542 | 63 | 202 | 3.0 | 7.0 | 0.00 | 0.00 | 0.00 | 59 | 1031.9 |
| 20260508144023 | 64 | 202 | 3.0 | 8.0 | 0.00 | 0.00 | 0.00 | 59 | 1030.9 |
| 20260508143603 | 64 | 206 | 3.0 | 6.0 | 0.00 | 0.00 | 0.00 | 59 | 1031.8 |
| 20260508143024 | 65 | 189 | 2.0 | 4.0 | 0.00 | 0.00 | 0.00 | 58 | 1028.6 |
| 20260508142524 | 65 | 215 | 2.0 | 4.0 | 0.00 | 0.00 | 0.00 | 56 | 1024.0 |
| 20260508142023 | 65 | 213 | 2.0 | 9.0 | 0.00 | 0.00 | 0.00 | 56 | 1024.1 |
| 20260508141522 | 65 | 192 | 3.0 | 6.0 | 0.00 | 0.00 | 0.00 | 57 | 1024.9 |
| 20260508141022 | 64 | 191 | 3.0 | 6.0 | 0.00 | 0.00 | 0.00 | 57 | 1025.8 |
| 20260508140522 | 64 | 161 | 3.0 | 8.0 | 0.00 | 0.00 | 0.00 | 58 | 1027.3 |
| 20260508140022 | 63 | 193 | 3.0 | 7.0 | 0.00 | 0.00 | 0.00 | 59 | 1028.7 |
| 20260508135522 | 63 | 195 | 2.0 | 4.0 | 0.00 | 0.00 | 0.00 | 61 | 1032.8 |
| 20260508135032 | 62 | 199 | 2.0 | 4.0 | 0.00 | 0.00 | 0.00 | 63 | 1036.7 |
| 20260508134526 | 61 | 208 | 2.0 | 7.0 | 0.00 | 0.00 | 0.00 | 65 | 1037.0 |
| 20260508134031 | 60 | 171 | 2.0 | 3.0 | 0.00 | 0.00 | 0.00 | 66 | 1036.4 |
| 20260508133525 | 59 | 197 | 2.0 | 6.0 | 0.00 | 0.00 | 0.00 | 67 | 1034.8 |
| 20260508133032 | 59 | 211 | 2.0 | 2.0 | 0.00 | 0.00 | 0.00 | 68 | 1033.3 |
| 20260508132554 | 58 | 210 | 1.0 | 2.0 | 0.00 | 0.00 | 0.00 | 69 | 1032.1 |
| 20260508132053 | 58 | 215 | 2.0 | 5.0 | 0.00 | 0.00 | 0.00 | 70 | 1030.0 |
| 20260508131552 | 57 | 212 | 1.0 | 5.0 | 0.00 | 0.00 | 0.00 | 72 | 1029.0 |
| 20260508131032 | 57 | 206 | 1.0 | 1.0 | 0.00 | 0.00 | 0.00 | 72 | 1029.0 |
| 20260508130534 | 56 | 195 | 1.0 | 2.0 | 0.00 | 0.00 | 0.00 | 73 | 1028.9 |
| 20260508130032 | 55 | 200 | 1.0 | 4.0 | 0.00 | 0.00 | 0.00 | 74 | 1029.0 |
| 20260508125535 | 55 | 196 | 2.0 | 4.0 | 0.00 | 0.00 | 0.00 | 75 | 1029.3 |
| 20260508125032 | 54 | 187 | 2.0 | 4.0 | 0.00 | 0.00 | 0.00 | 75 | 1029.4 |
| 20260508124532 | 54 | 61 | 2.0 | 4.0 | 0.00 | 0.00 | 0.00 | 75 | 1029.7 |
| 20260508124035 | 54 | 208 | 1.0 | 3.0 | 0.00 | 0.00 | 0.00 | 75 | 1029.4 |
| 20260508123554 | 54 | 205 | 1.0 | 2.0 | 0.00 | 0.00 | 0.00 | 75 | 1029.3 |
| 20260508123032 | 53 | 195 | 2.0 | 4.0 | 0.00 | 0.00 | 0.00 | 75 | 1029.3 |
| 20260508122533 | 53 | 204 | 1.0 | 2.0 | 0.00 | 0.00 | 0.00 | 75 | 1029.2 |